Location: *
(40.7873°S, 98.7174°E)
Time: 21:53:47
(UTC+00:00)

Cosmos 192 - Pass Details

Date: 27 September 2022
Orbit: 701 x 711 km, 74.0° (Epoch: 05 December)

Event Time Altitude Azimuth Distance (km) Brightness Sun altitude
Rises 22:18:40 0° 217° (SW) 3,134 7.4 -9.5°
Reaches altitude 10° 22:21:41 10° 235° (SW) 2,207 6.5 -9.0°
Maximum altitude 22:24:57 18° 276° (W) 1,734 5.7 -8.4°
Drops below altitude 10° 22:28:11 10° 318° (NW) 2,191 6.4 -7.8°
Sets 22:31:11 0° 336° (NNW) 3,101 7.3 -7.2°
